Weather History for KCPW - April, 2014

Change the Weather History Date:

Friday, April 11, 2014

  Actual Average (KALS) Record (KALS)
Temperature  
Mean Temperature 37 °F 40 °F  
Max Temperature 42 °F 58 °F 73 °F (1971)
Min Temperature 32 °F 23 °F 2 °F (1951)
Degree Days  
Heating Degree Days 28 25  
Month to date heating degree days 285  
Since 1 July heating degree days 7591  
Cooling Degree Days 0 0  
Month to date cooling degree days 0  
Year to date cooling degree days 0  
Moisture  
Dew Point 7 °F    
Average Humidity 30    
Maximum Humidity 38    
Minimum Humidity 24    
Precipitation  
Precipitation 0.00 in 0.02 in 0.22 in (2009)
Month to date precipitation 0.21  
Year to date precipitation 1.26  
Snow  
Snow 0.00 in 0.10 in 2.00 in (1997)
Month to date snowfall 1.6  
Since 1 July snowfall 24.7  
Snow Depth -    
Sea Level Pressure  
Sea Level Pressure 30.34 in    
Wind  
Wind Speed 13 mph (SW)    
Max Wind Speed 20 mph    
Max Gust Speed 38 mph    
Visibility 10 miles    
Events      
T = Trace of Precipitation, MM = Missing Value Source: NWS Daily Summary

Daily Weather History Graph

Daily Weather History Graph

Search for Another Location

Airport or City:

Trip Planner

Search our weather history database for the weather conditions in past years. The results will help you decide how hot, cold, wet, or windy it might be!

Date:

Astronomy

Apr. 11, 2014 Rise Set
Actual Time 6:37 AM MDT 7:38 PM MDT
Civil Twilight 6:11 AM MDT 8:05 PM MDT
Nautical Twilight 5:39 AM MDT 8:37 PM MDT
Astronomical Twilight 5:06 AM MDT 9:10 PM MDT
Moon 4:26 PM MDT (4/11) 4:30 AM MDT (4/11)
Length of Visible Light 13h 54m
Length of Day
13h 01m
Waxing Gibbous, 87% of the Moon is Illuminated
Apr 11
Waxing Gibbous
Apr 15
Full
Apr 22
Last Quarter
Apr 29
New
May 6
First Quarter

Hourly Weather History & Observations

Time (MDT) Temp. Windchill Dew Point Humidity Pressure Visibility Wind Dir Wind Speed Gust Speed Precip Events Conditions
12:08 AM 32.0 °F 25.6 °F 8.6 °F 38% 30.37 in 10.0 mi West 6.9 mph - N/A   Clear
12:25 AM 32.0 °F 24.8 °F 6.8 °F 35% 30.37 in 10.0 mi West 8.1 mph - N/A   Clear
12:50 AM 32.0 °F 22.5 °F 8.6 °F 38% 30.37 in 10.0 mi WSW 12.7 mph - N/A   Clear
1:04 AM 32.0 °F 22.5 °F 6.8 °F 35% 30.37 in 10.0 mi WSW 12.7 mph - N/A   Clear
1:54 AM 32.0 °F 21.6 °F 8.6 °F 38% 30.37 in 10.0 mi SW 15.0 mph - N/A   Clear
2:29 AM 32.0 °F 20.5 °F 8.6 °F 38% 30.36 in 10.0 mi SW 18.4 mph 25.3 mph N/A   Clear
2:58 AM 32.0 °F 20.1 °F 8.6 °F 38% 30.36 in 10.0 mi SW 19.6 mph - N/A   Clear
3:14 AM 32.0 °F 20.1 °F 8.6 °F 38% 30.35 in 10.0 mi WSW 19.6 mph 25.3 mph N/A   Clear
3:38 AM 32.0 °F 20.5 °F 6.8 °F 35% 30.35 in 10.0 mi WSW 18.4 mph 27.6 mph N/A   Clear
3:54 AM 32.0 °F 21.2 °F 6.8 °F 35% 30.35 in 10.0 mi WSW 16.1 mph 26.5 mph N/A   Clear
4:17 AM 32.0 °F 21.2 °F 5.0 °F 32% 30.35 in 10.0 mi WSW 16.1 mph 24.2 mph N/A   Clear
4:36 AM 32.0 °F 22.1 °F 5.0 °F 32% 30.35 in 10.0 mi WSW 13.8 mph 21.9 mph N/A   Clear
4:47 AM 32.0 °F 24.2 °F 3.2 °F 30% 30.35 in 10.0 mi WSW 9.2 mph 18.4 mph N/A   Clear
5:15 AM 32.0 °F 21.6 °F 5.0 °F 32% 30.35 in 10.0 mi WSW 15.0 mph - N/A   Clear
5:38 AM 32.0 °F 22.1 °F 3.2 °F 30% 30.35 in 10.0 mi SW 13.8 mph 20.7 mph N/A   Clear
5:40 AM 32.0 °F 22.1 °F 3.2 °F 30% 30.35 in 10.0 mi WSW 13.8 mph 20.7 mph N/A   Clear
6:08 AM 32.0 °F 23.6 °F 5.0 °F 32% 30.35 in 10.0 mi SW 10.4 mph - N/A   Clear
6:57 AM 32.0 °F 22.5 °F 5.0 °F 32% 30.36 in 10.0 mi SW 12.7 mph - N/A   Clear
7:04 AM 32.0 °F 23.0 °F 5.0 °F 32% 30.36 in 10.0 mi SW 11.5 mph - N/A   Clear
7:38 AM 33.8 °F 25.3 °F 5.0 °F 30% 30.38 in 10.0 mi SSW 11.5 mph - N/A   Clear
7:46 AM 33.8 °F 25.3 °F 5.0 °F 30% 30.38 in 10.0 mi SW 11.5 mph - N/A   Clear
8:16 AM 33.8 °F 24.8 °F 8.6 °F 35% 30.39 in 10.0 mi SW 12.7 mph 18.4 mph N/A   Clear
8:52 AM 35.6 °F 27.1 °F 8.6 °F 33% 30.39 in 10.0 mi SW 12.7 mph - N/A   Clear
9:17 AM 37.4 °F 32.1 °F 8.6 °F 30% 30.39 in 10.0 mi SSW 6.9 mph - N/A   Clear
9:51 AM 37.4 °F 32.8 °F 8.6 °F 30% 30.39 in 10.0 mi SSW 5.8 mph - N/A   Clear
10:18 AM 39.2 °F 33.6 °F 8.6 °F 28% 30.40 in 10.0 mi SSW 8.1 mph - N/A   Clear
10:33 AM 41.0 °F 33.1 °F 8.6 °F 26% 30.40 in 10.0 mi West 15.0 mph 24.2 mph N/A   Clear
10:46 AM 41.0 °F 35.8 °F 8.6 °F 26% 30.40 in 10.0 mi SSW 8.1 mph 16.1 mph N/A   Clear
11:14 AM 42.8 °F 35.8 °F 8.6 °F 25% 30.39 in 10.0 mi WSW 13.8 mph 20.7 mph N/A   Clear
11:34 AM 41.0 °F 34.7 °F 8.6 °F 26% 30.39 in 10.0 mi SW 10.4 mph 19.6 mph N/A   Clear
11:55 AM 42.8 °F 37.5 °F 8.6 °F 25% 30.39 in 10.0 mi SW 9.2 mph 20.7 mph N/A   Clear
12:05 PM 42.8 °F 37.0 °F 10.4 °F 27% 30.39 in 10.0 mi WSW 10.4 mph 20.7 mph N/A   Clear
12:31 PM 42.8 °F 37.0 °F 10.4 °F 27% 30.38 in - SSW 10.4 mph 18.4 mph N/A   Clear
1:06 PM 42.8 °F 35.4 °F 10.4 °F 27% 30.37 in 10.0 mi WSW 15.0 mph 25.3 mph N/A   Clear
1:35 PM 41.0 °F 33.1 °F 10.4 °F 29% 30.35 in 10.0 mi SSW 15.0 mph 28.8 mph N/A   Clear
1:55 PM 41.0 °F 32.5 °F 10.4 °F 29% 30.34 in 10.0 mi SW 17.3 mph 25.3 mph N/A   Clear
2:27 PM 41.0 °F 32.5 °F 8.6 °F 26% 30.33 in 10.0 mi SW 17.3 mph 36.8 mph N/A   Clear
2:51 PM 42.8 °F 35.4 °F 8.6 °F 25% 30.33 in 10.0 mi SW 15.0 mph 33.4 mph N/A   Clear
3:08 PM 42.8 °F 34.8 °F 10.4 °F 27% 30.32 in 10.0 mi SW 17.3 mph 31.1 mph N/A   Clear
3:29 PM 42.8 °F 34.5 °F 8.6 °F 25% 30.31 in 10.0 mi SW 18.4 mph 34.5 mph N/A   Clear
3:43 PM 42.8 °F 34.3 °F 8.6 °F 25% 30.29 in 10.0 mi WSW 19.6 mph 28.8 mph N/A   Clear
4:29 PM 41.0 °F 32.2 °F 8.6 °F 26% 30.29 in 10.0 mi SW 18.4 mph 32.2 mph N/A   Clear
5:57 PM 41.0 °F 31.9 °F 6.8 °F 24% 30.27 in 10.0 mi SSW 19.6 mph 29.9 mph N/A   Clear
6:16 PM 39.2 °F 30.8 °F 6.8 °F 26% 30.27 in 10.0 mi SW 15.0 mph 31.1 mph N/A   Clear
6:48 PM 37.4 °F 27.2 °F 5.0 °F 26% 30.27 in 10.0 mi SW 19.6 mph 38.0 mph N/A   Clear
7:08 PM 35.6 °F 25.2 °F 5.0 °F 28% 30.27 in 10.0 mi SW 18.4 mph 34.5 mph N/A   Clear
7:25 PM 35.6 °F 24.8 °F 5.0 °F 28% 30.27 in 10.0 mi SW 19.6 mph 31.1 mph N/A   Clear
7:54 PM 33.8 °F 22.5 °F 5.0 °F 30% 30.28 in 10.0 mi SW 19.6 mph 29.9 mph N/A   Clear
8:35 PM 33.8 °F 22.5 °F 3.2 °F 28% 30.28 in 10.0 mi SW 19.6 mph 24.2 mph N/A   Scattered Clouds
8:39 PM 33.8 °F 23.5 °F 3.2 °F 28% 30.28 in 10.0 mi SW 16.1 mph 24.2 mph N/A   Scattered Clouds
9:09 PM 33.8 °F 23.2 °F 3.2 °F 28% 30.29 in 10.0 mi SW 17.3 mph - N/A   Clear
9:33 PM 32.0 °F 21.2 °F 3.2 °F 30% 30.29 in 10.0 mi SW 16.1 mph - N/A   Clear
9:52 PM 32.0 °F 21.6 °F 3.2 °F 30% 30.29 in 10.0 mi SW 15.0 mph 21.9 mph N/A   Clear
10:17 PM 32.0 °F 21.6 °F 3.2 °F 30% 30.29 in 10.0 mi SW 15.0 mph - N/A   Clear
10:25 PM 32.0 °F 21.2 °F 3.2 °F 30% 30.28 in 10.0 mi SW 16.1 mph 23.0 mph N/A   Clear
10:43 PM 32.0 °F 22.1 °F 3.2 °F 30% 30.27 in 10.0 mi SW 13.8 mph - N/A   Scattered Clouds
11:16 PM 32.0 °F 22.5 °F 3.2 °F 30% 30.27 in 10.0 mi SW 12.7 mph - N/A   Overcast
11:34 PM 32.0 °F 22.5 °F 3.2 °F 30% 30.27 in 10.0 mi SW 12.7 mph - N/A   Overcast
11:57 PM 32.0 °F 22.1 °F 3.2 °F 30% 30.26 in 10.0 mi SW 13.8 mph 18.4 mph N/A   Scattered Clouds